Location: Poughquag
(41.6090°N, 73.6820°W)
Time: 19:47:25
(UTC-04:00)

Tiros 1 - Pass Details

Date: 07 June 2020
Orbit: 630 x 664 km, 48.4° (Epoch: 04 July)

Event Time Altitude Azimuth Distance (km) Brightness Sun altitude
Rises 14:58:24 0° 297° (WNW) 2,970 10.8 57.9°
Reaches altitude 10° 15:00:48 10° 302° (WNW) 2,052 10.1 57.5°
Maximum altitude 15:05:26 53° 19° (NNE) 791 8.1 56.8°
Drops below altitude 10° 15:10:00 10° 97° (E) 2,025 9.5 56.0°
Sets 15:12:22 0° 102° (ESE) 2,927 10.2 55.6°
